Das Wetter in  D-61279 Heinzenberg / Taunus





Wetter Minimum- & Maximum-Werte im Oktober 2008

Standort: Heinzenberg / Taunus - Höhe 297 m         8° 24' 1" Ost 50° 21' 51" Nord
(   3-stündige Aktualisierung    letzte Aktualisierung um 20:46 am 31.10.2008  )


Messgrösse

Minimum

Maximum

Durchschnitt

Temperatur West /
Luftfeuchte West
Anklicken für Monats-Diagramm

-0,9 °C

06:38
24.10.2008

54 %

17:00
04.10.2008

19,5 °C

15:36
11.10.2008

95 %

10:03
07.10.2008

Temp

8,8 °C

Feuchte

86 %

Temperatur Ost /
Luftfeuchte Ost
Anklicken für Monats-Diagramm

-0,9 °C

06:33
24.10.2008

--

--
--

18,1 °C

15:36
11.10.2008

--

--
--

8,9 °C

--

Luftdruck Anklicken für Monats-Diagramm

997,0 hPa

11:28
30.10.2008

1036,1 hPa

08:10
10.10.2008

1017,7 hPa

Taupunkt

-2,3 °C

06:38
24.10.2008

15,0 °C

15:21
11.10.2008

6,4 °C

Windchill
( gefühlte Temperatur )

-7,0 °C

09:39
31.10.2008

19,5 °C

15:36
11.10.2008

6,8 °C

Windgeschwindigkeit /
Windrichtung
Anklicken für Monats-Diagramm

---

66,3 km/h / W-SW

15:17
01.10.2008

7,5 km/h
W-SW

Helligkeit /
Sonnenschein
Anklicken für Monats-Diagramm
Anklicken für Monats-Diagramm

Sonnenschein:

84:30 Stunden

Max: 9:10 Std am
20.10.2008

86,6 klux

12:27
01.10.2008

17,7 klux

Solarstrahlung Anklicken für Monats-Diagramm

---

592 W/m²

12:27
01.10.2008

132 W/m²

Regenmenge
    Oktober 2008
Anklicken für Monats-Diagramm

Insgesamt 21,0 l/m²

in 72:06 Stunden
an 21 Tagen

5,9 l/m²

17:52
01.10.2008

Gesamtmenge

21,0 l/m²

Regen-Tage
    Oktober 2008
Anklicken für Monats-Diagramm

>   0 mm/Tag

>   2 mm/Tag

>   5 mm/Tag

> 10 mm/Tag

> 20 mm/Tag

21 Tage     
4 Tage     
  1 Tag     
0 Tage     
0 Tage     

Eisige Tage Oktober 2008 / 2007

Tmin ≤ -10°C     

0 Tage

/

0 Tage

Eistage Oktober 2008 / 2007

Tmax <     0°C     

0 Tage

/

0 Tage

Frosttage Oktober 2008 / 2007

Tmin ≤     0°C     

  1 Tag

/

3 Tage

Kalte Tage Oktober 2008 / 2007

Tmax <   10°C     

5 Tage

/

9 Tage

Warme Tage Oktober 2008 / 2007

Tmax ≥   20°C     

0 Tage

/

  1 Tag

Sommertage Oktober 2008 / 2007

Tmax ≥   25°C     

0 Tage

/

0 Tage

Heisse Tage Oktober 2008 / 2007

Tmax ≥   30°C     

0 Tage

/

0 Tage


Monatsdiagramm Oktober 2008

Die Kurven zeigen den Durchschnittswert des jeweiligen Tages an


Wetter-Monatsübersicht Oktober 2008
Datum
  Temperatur
   Luftdruck
   Wind
  Regen
   Luftfeuchte
   Helligkeit

Sonnen-
schein

Ø
Temp.

Min.
Temp.

Max.
Temp.

Ø
Luftdruck

Min.
Luftdruck

Max.
Luftdruck

Ø-Geschw.
Haupt-Richtg.

Max.
Wind

Menge /
Dauer

Ø
Feuchte

Min.
Feuchte

Max.
Feuchte

Ø
Helligkeit

Max.
Helligkeit

1.
Oktober
11,3 °C9,5 °C
22:12
14,0 °C
15:42
1001,4 hPa999,8 hPa
15:42
1003,5 hPa
22:17
33,4 km/h
W-SW
66,3 km/h
15:17  
5,9 l/m²
7:01 Stunden
86 %75 %
15:32
92 %
00:01
12,5 klux86,6 klux
12:27
35 Min 
2.
Oktober
8,9 °C6,2 °C
23:54
12,6 °C
15:43
1004,6 hPa1003,4 hPa
00:03
1007,0 hPa
23:54
24,9 km/h
W-SW
48,4 km/h
17:03  
0,5 l/m²
1:49 Stunden
78 %64 %
16:58
85 %
05:18
27,3 klux81,0 klux
13:53
4:30 Std 
3.
Oktober
7,0 °C3,8 °C
08:39
11,8 °C
14:59
1008,5 hPa1006,0 hPa
00:09
1012,2 hPa
23:50
6,6 km/h
W-SW
28,7 km/h
16:14  
---
30 Minuten
80 %65 %
14:54
89 %
09:24
26,7 klux73,6 klux
12:19
5:15 Std 
4.
Oktober
7,2 °C5,6 °C
01:25
11,5 °C
16:55
1016,2 hPa1011,1 hPa
00:00
1018,4 hPa
20:00
11,6 km/h
W-SW
33,4 km/h
14:25  
1,5 l/m²
3:05 Stunden
78 %54 %
17:00
92 %
08:10
26,3 klux69,9 klux
12:35
4:50 Std 
5.
Oktober
8,2 °C5,2 °C
03:36
11,2 °C
19:51
1010,5 hPa1006,6 hPa
23:32
1016,4 hPa
00:06
25,1 km/h
W-SW
44,7 km/h
12:01  
4,0 l/m²
6:16 Stunden
79 %69 %
19:51
87 %
23:57
14,8 klux53,8 klux
12:01
25 Min 
6.
Oktober
12,4 °C9,2 °C
00:02
15,1 °C
13:27
1012,5 hPa1006,5 hPa
02:47
1017,7 hPa
23:48
15,1 km/h
W-SW
31,5 km/h
14:02  
0,3 l/m²
11:50 Stunden
91 %84 %
13:37
93 %
03:51
13,7 klux50,5 klux
13:22
25 Min 
7.
Oktober
13,2 °C10,8 °C
07:18
16,5 °C
13:58
1016,3 hPa1014,1 hPa
17:38
1017,8 hPa
07:18
4,6 km/h
W-SW
21,8 km/h
13:08  
---
5 Minuten
87 %77 %
15:38
95 %
10:03
20,6 klux74,1 klux
12:38
1:50 Std 
8.
Oktober
13,1 °C10,5 °C
07:29
17,9 °C
13:59
1016,6 hPa1013,5 hPa
03:44
1022,9 hPa
22:50
3,4 km/h
W-NW
17,5 km/h
18:09  
---
25 Minuten
88 %80 %
14:39
94 %
10:59
15,0 klux71,5 klux
12:14
50 Min 
9.
Oktober
12,2 °C10,7 °C
07:45
15,4 °C
14:35
1029,3 hPa1022,9 hPa
00:00
1034,3 hPa
23:55
1,3 km/h
NW
11,0 km/h
11:30  
---
15 Minuten
85 %76 %
14:45
91 %
08:30
12,4 klux51,8 klux
14:25
10 Min 
10.
Oktober
11,1 °C5,3 °C
08:10
18,8 °C
15:25
1034,2 hPa1031,4 hPa
16:25
1036,1 hPa
08:10
2,0 km/h
W-SW
17,0 km/h
15:55  
---
84 %63 %
15:35
94 %
11:20
30,2 klux68,9 klux
13:10
7:30 Std 
11.
Oktober
10,8 °C6,2 °C
05:36
19,5 °C
15:36
1031,2 hPa1029,2 hPa
15:36
1033,6 hPa
00:01
1,6 km/h
SO
15,5 km/h
17:01  
---
87 %70 %
15:46
94 %
11:21
25,2 klux58,0 klux
13:01
4:30 Std 
12.
Oktober
12,5 °C10,0 °C
23:58
18,4 °C
15:17
1028,1 hPa1026,1 hPa
23:13
1030,2 hPa
00:02
2,4 km/h
SO
15,8 km/h
17:42  
---
88 %75 %
15:22
93 %
09:12
21,2 klux67,3 klux
13:07
3:05 Std 
13.
Oktober
11,5 °C6,9 °C
08:43
18,0 °C
16:28
1022,3 hPa1019,0 hPa
16:28
1026,4 hPa
01:58
1,0 km/h
W-NW
10,7 km/h
00:28  
---
5 Minuten
89 %78 %
17:23
94 %
10:08
19,7 klux50,1 klux
13:38
2:30 Std 
14.
Oktober
13,2 °C10,1 °C
23:55
16,0 °C
12:44
1020,8 hPa1019,5 hPa
06:19
1022,0 hPa
23:55
6,0 km/h
W
18,5 km/h
12:44  
---
86 %74 %
17:29
93 %
03:24
15,8 klux47,0 klux
11:59
1:30 Std 
15.
Oktober
11,5 °C9,3 °C
03:50
13,6 °C
12:45
1017,9 hPa1012,3 hPa
23:55
1022,0 hPa
00:15
8,7 km/h
W-SW
29,8 km/h
23:35  
0,6 l/m²
2:05 Stunden
89 %83 %
11:20
92 %
08:50
5,7 klux16,1 klux
12:20
--- 
16.
Oktober
9,9 °C5,5 °C
22:00
13,3 °C
02:45
1012,5 hPa1010,5 hPa
12:55
1017,4 hPa
23:41
15,7 km/h
W
39,7 km/h
15:10  
2,1 l/m²
7:27 Stunden
89 %84 %
04:10
93 %
20:55
7,4 klux21,6 klux
13:41
--- 
17.
Oktober
6,3 °C3,1 °C
23:47
11,9 °C
14:21
1020,0 hPa1017,4 hPa
00:46
1022,9 hPa
23:47
5,7 km/h
W
24,0 km/h
14:21  
---
10 Minuten
87 %71 %
15:01
94 %
09:51
20,7 klux70,7 klux
12:31
3:35 Std 
18.
Oktober
5,1 °C0,0 °C
07:47
14,8 °C
15:07
1022,0 hPa1019,4 hPa
15:07
1023,3 hPa
06:42
2,7 km/h
W-NW
19,2 km/h
13:47  
---
84 %61 %
15:37
94 %
11:52
29,0 klux59,4 klux
13:32
7:55 Std 
19.
Oktober
6,4 °C1,3 °C
06:03
14,0 °C
14:58
1024,0 hPa1022,6 hPa
15:58
1026,2 hPa
09:13
4,4 km/h
W-SW
25,3 km/h
11:48  
---
82 %66 %
15:23
93 %
10:43
26,0 klux55,5 klux
11:48
6:45 Std 
20.
Oktober
9,1 °C0,1 °C
09:09
16,8 °C
14:54
1018,3 hPa1013,1 hPa
20:49
1023,0 hPa
03:14
9,2 km/h
W-SW
30,6 km/h
15:04  
---
80 %64 %
15:09
93 %
10:19
31,0 klux51,7 klux
12:34
9:10 Std 
21.
Oktober
12,4 °C7,9 °C
23:46
16,8 °C
13:25
1012,2 hPa1008,8 hPa
13:25
1018,2 hPa
23:46
15,7 km/h
W-SW
38,8 km/h
12:30  
---
3:36 Stunden
84 %72 %
13:50
90 %
22:51
13,9 klux47,6 klux
13:10
1:40 Std 
22.
Oktober
7,9 °C5,9 °C
23:52
9,7 °C
14:36
1022,6 hPa1018,2 hPa
00:01
1029,8 hPa
23:52
0,0 km/h
S-SO
4,0 km/h
00:01  
---
3:05 Stunden
90 %85 %
15:41
94 %
11:01
10,1 klux32,7 klux
11:36
--- 
23.
Oktober
4,8 °C1,2 °C
23:33
10,4 °C
16:12
1030,3 hPa1028,2 hPa
16:12
1032,2 hPa
08:17
1,5 km/h
SO
13,6 km/h
17:12  
---
87 %74 %
17:12
93 %
09:22
15,7 klux47,7 klux
14:52
2:40 Std 
24.
Oktober
5,1 °C-0,9 °C
06:38
13,9 °C
15:38
1027,1 hPa1024,7 hPa
15:38
1029,7 hPa
23:19
1,8 km/h
SO
15,1 km/h
15:23  
---
35 Minuten
84 %66 %
15:43
94 %
11:23
25,5 klux60,5 klux
13:33
5:20 Std 
25.
Oktober
8,5 °C3,9 °C
23:44
14,6 °C
15:14
1031,9 hPa1029,7 hPa
00:09
1033,8 hPa
08:49
2,1 km/h
SO
17,1 km/h
15:24  
---
86 %68 %
17:04
93 %
10:04
18,0 klux54,7 klux
14:24
3:55 Std 
26.
Oktober
8,0 °C1,7 °C
06:34
12,4 °C
11:59
1022,9 hPa1014,7 hPa
23:00
1031,2 hPa
00:44
9,8 km/h
W-SW
33,0 km/h
18:19  
---
79 %67 %
17:29
92 %
04:09
13,5 klux34,4 klux
10:14
2:40 Std 
27.
Oktober
8,5 °C4,4 °C
23:56
10,9 °C
00:00
1009,4 hPa1007,6 hPa
12:00
1014,7 hPa
00:00
7,1 km/h
W-SW
26,8 km/h
12:25  
0,9 l/m²
10:00 Stunden
89 %71 %
00:00
92 %
08:40
6,8 klux19,8 klux
11:35
--- 
28.
Oktober
5,0 °C3,0 °C
23:52
7,3 °C
13:01
1010,7 hPa1009,3 hPa
00:01
1011,5 hPa
23:52
1,0 km/h
NW
10,0 km/h
13:11  
0,2 l/m²
35 Minuten
90 %83 %
14:41
94 %
08:06
11,3 klux26,9 klux
11:46
--- 
29.
Oktober
4,1 °C1,8 °C
06:27
7,8 °C
15:32
1008,0 hPa1002,1 hPa
23:27
1011,6 hPa
00:32
0,9 km/h
NO
11,0 km/h
14:07  
0,2 l/m²
40 Minuten
88 %77 %
15:47
94 %
09:12
15,3 klux49,0 klux
10:57
1:25 Std 
30.
Oktober
2,9 °C1,9 °C
07:13
3,8 °C
14:43
999,2 hPa997,0 hPa
11:28
1002,3 hPa
23:54
1,3 km/h
NO
11,0 km/h
04:28  
4,6 l/m²
11:12 Stunden
92 %89 %
00:02
93 %
08:33
6,4 klux14,6 klux
14:18
--- 
31.
Oktober
4,5 °C2,3 °C
01:49
9,6 °C
14:14
1006,3 hPa1002,2 hPa
00:09
1009,3 hPa
23:15
6,1 km/h
O-SO
27,8 km/h
10:39  
0,3 l/m²
1:20 Stunden
90 %81 %
14:19
93 %
00:04
12,2 klux47,7 klux
13:24
1:30 Std 



Oktober
2008

Temperatur

  

Luftdruck

  

Wind

  

Regen

  

Luftfeuchte

  

Helligkeit

Sonnen-
schein

Ø

Min

Max

Ø

Min

Max

Ø

Max

Max

Ø

Min

Max

Ø

Max

Max

8,8 °C

-0,9 °C

06:38 Uhr
24.10.2008

19,5 °C

15:36 Uhr
11.10.2008

1017,7 hPa

997,0 hPa

11:28 Uhr
30.10.2008

1036,1 hPa

08:10 Uhr
10.10.2008

7,5 km/h

W-SW

66,3 km/h

15:17 Uhr
01.10.2008

5,9 l/m²

7:01 Stunden
01.10.2008

86 %

54 %

17:00 Uhr
04.10.2008

95 %

10:03 Uhr
07.10.2008

17,7 klux

86,6 klux

12:27 Uhr
01.10.2008

9:10 Std

am
20.10.2008

Gesamt

Gesamt

21,0 l/m²

21 Tage
72:06 h

84:30 Std


Wetter-Diagramme Oktober 2008     Heinzenberg / Taunus   
TemperaturLuftfeuchte
SolarstrahlungLuftdruck
HelligkeitSonnenschein
RegenmengeRegendauer
Wind-GeschwindigkeitWind-Richtung